TimeEST,TemperatureF,Dew PointF,Humidity,Sea Level PressureIn,VisibilityMPH,Wind Direction,Wind SpeedMPH,Gust SpeedMPH,PrecipitationIn,Events,Conditions,WindDirDegrees,DateUTC
12:56 AM,34.0,21.0,59,29.91,10.0,WNW,6.9,-,N/A,,Partly Cloudy,290,2013-02-13 05:56:00
1:56 AM,34.0,21.0,59,29.94,10.0,West,4.6,-,N/A,,Overcast,270,2013-02-13 06:56:00
2:56 AM,33.1,21.9,64,29.94,10.0,WSW,3.5,-,N/A,,Mostly Cloudy,250,2013-02-13 07:56:00
3:56 AM,30.9,21.9,69,29.92,10.0,WNW,4.6,-,N/A,,Overcast,290,2013-02-13 08:56:00
4:56 AM,27.0,21.0,78,29.90,10.0,NW,4.6,-,N/A,,Clear,310,2013-02-13 09:56:00
5:56 AM,27.0,21.0,78,29.90,10.0,West,3.5,-,N/A,,Clear,280,2013-02-13 10:56:00
6:56 AM,25.0,19.9,81,29.91,9.0,Calm,Calm,-,N/A,,Clear,0,2013-02-13 11:56:00
7:56 AM,28.0,21.9,78,29.91,10.0,Calm,Calm,-,N/A,,Clear,0,2013-02-13 12:56:00
8:56 AM,34.0,21.9,61,29.89,10.0,Calm,Calm,-,N/A,,Clear,0,2013-02-13 13:56:00
9:56 AM,36.0,21.0,55,29.88,10.0,Calm,Calm,-,N/A,,Clear,0,2013-02-13 14:56:00
10:56 AM,37.9,19.9,48,29.87,10.0,Calm,Calm,-,N/A,,Clear,0,2013-02-13 15:56:00
11:56 AM,37.9,21.0,51,29.88,10.0,SSW,5.8,-,N/A,,Mostly Cloudy,200,2013-02-13 16:56:00
12:56 PM,39.0,19.9,46,29.83,10.0,Calm,Calm,-,N/A,,Clear,0,2013-02-13 17:56:00
1:56 PM,41.0,19.9,43,29.78,10.0,West,3.5,-,N/A,,Clear,270,2013-02-13 18:56:00
2:56 PM,41.0,21.0,45,29.77,10.0,NNW,4.6,-,N/A,,Clear,340,2013-02-13 19:56:00
3:56 PM,39.0,23.0,53,29.76,10.0,South,8.1,-,N/A,,Clear,170,2013-02-13 20:56:00
4:56 PM,39.0,23.0,53,29.75,10.0,Calm,Calm,-,N/A,,Mostly Cloudy,0,2013-02-13 21:56:00
5:56 PM,37.0,23.0,57,29.71,10.0,NNE,4.6,-,N/A,,Mostly Cloudy,30,2013-02-13 22:56:00
6:56 PM,36.0,23.0,59,29.71,10.0,Calm,Calm,-,N/A,,Overcast,0,2013-02-13 23:56:00
7:56 PM,36.0,23.0,59,29.71,10.0,Calm,Calm,-,N/A,,Overcast,0,2013-02-14 00:56:00
8:56 PM,35.1,24.1,64,29.72,10.0,NW,4.6,-,N/A,,Overcast,310,2013-02-14 01:56:00
9:56 PM,35.1,26.1,70,29.70,9.0,NNW,12.7,-,0.00,Snow,Light Snow,330,2013-02-14 02:56:00
10:43 PM,33.8,30.2,87,29.68,1.0,NNW,11.5,-,0.00,Snow,Light Snow,340,2013-02-14 03:43:00
10:56 PM,33.1,30.0,89,29.71,0.8,NNW,10.4,-,0.00,Snow,Light Snow,340,2013-02-14 03:56:00
11:01 PM,33.8,30.2,87,29.69,1.0,NNW,11.5,-,0.00,Snow,Light Snow,340,2013-02-14 04:01:00
11:53 PM,33.8,30.2,87,29.69,2.5,North,5.8,-,0.01,Snow,Light Snow,10,2013-02-14 04:53:00
11:56 PM,33.1,30.0,89,29.71,2.0,NNE,5.8,-,0.01,Snow,Light Snow,20,2013-02-14 04:56:00